Date String (YYYY-MM-DD hh:mm:ss) UTC,Instrument flags,Ambient pressure (hPa),Sample flow (lpm),Bypass flow (lpm),Sample temperature (°C),Ambient temperature (°C),ASC tube jacket temperature (°C),LED temperature (°C),Box temperature (°C),Sample RH (%),Span deviation,Mass concentration (μg/m³),Mass concentration (μg/m³),Mass concentration (μg/m³)
DateTimeUTC,F1_M11,P_M11,Q1_M11,Q2_M11,T1_M11,T2_M11,T3_M11,T4_M11,T5_M11,U1_M11,ZSPAN_M11,X0_M11,X2_M11,X1_M11
2023-03-05 16:00:00,,0815.4,5.00,0.00,22.2,20.6,00.0,31.0,23.9,14.9,-001.5,0010.42,0006.53,0005.75
2023-03-05 16:01:00,,0815.4,5.01,0.00,22.2,20.6,00.0,30.9,23.9,13.7,-001.8,0010.47,0006.60,0005.84
2023-03-05 16:02:00,,0815.4,5.00,0.00,22.2,20.7,00.0,30.9,24.0,13.1,-001.8,0010.14,0006.47,0005.73
2023-03-05 16:03:00,,0815.4,4.99,0.00,22.2,20.8,00.0,31.0,24.0,13.6,-001.7,0010.03,0006.35,0005.57
2023-03-05 16:04:00,,0815.4,4.99,0.00,22.2,20.8,00.0,30.9,24.0,13.7,-001.6,0009.96,0006.20,0005.37
2023-03-05 16:05:00,,0815.4,5.00,0.00,22.2,20.8,00.0,31.0,24.0,13.1,-001.8,0009.79,0006.04,0005.21
2023-03-05 16:06:00,,0815.4,5.00,0.00,22.2,20.8,00.0,31.0,24.0,14.0,-001.8,0009.63,0005.91,0005.09
2023-03-05 16:07:00,,0815.4,4.98,0.00,22.2,20.8,00.0,31.0,24.0,14.3,-001.7,0009.36,0005.79,0005.04
2023-03-05 16:08:00,,0815.4,5.00,0.00,22.2,20.8,00.0,31.0,24.0,14.0,-001.4,0009.22,0005.67,0004.95
2023-03-05 16:09:00,,0815.4,5.01,0.00,22.2,20.8,00.0,30.9,23.9,14.0,-001.1,0009.17,0005.60,0004.86
2023-03-05 16:10:00,,0815.4,5.00,0.00,22.2,20.7,00.0,30.9,23.9,14.2,-000.2,0009.09,0005.53,0004.78
2023-03-05 16:11:00,,0815.4,5.02,0.00,22.2,20.7,00.0,30.9,23.9,13.9,0000.2,0008.99,0005.42,0004.66
2023-03-05 16:12:00,,0815.3,5.00,0.00,22.2,20.7,00.0,30.9,24.0,13.3,0000.9,0008.86,0005.33,0004.58
2023-03-05 16:13:00,,0815.3,4.99,0.00,22.2,20.8,00.0,30.9,24.0,13.0,0000.5,0009.04,0005.31,0004.55
2023-03-05 16:14:00,,0815.3,5.00,0.00,22.2,20.9,00.0,30.9,24.1,12.7,0000.3,0008.92,0005.22,0004.51
2023-03-05 16:15:00,,0815.4,4.99,0.00,22.2,20.9,00.0,30.9,24.1,12.2,0000.2,0008.68,0005.06,0004.40
2023-03-05 16:16:00,,0815.3,5.00,0.00,22.2,20.9,00.0,31.0,24.1,12.7,0000.7,0008.61,0004.99,0004.32
2023-03-05 16:17:00,,0815.3,5.02,0.00,22.3,20.8,00.0,31.0,24.1,13.4,0001.0,0009.11,0004.98,0004.29
2023-03-05 16:18:00,,0815.4,4.99,0.00,22.2,20.8,00.0,31.0,24.0,13.7,0001.7,0009.22,0004.97,0004.24
2023-03-05 16:19:00,,0815.3,4.99,0.00,22.2,20.8,00.0,31.0,24.1,13.3,0001.7,0009.40,0004.94,0004.20
2023-03-05 16:20:00,,0815.3,5.02,0.00,22.3,20.8,00.0,31.0,24.1,12.8,0001.6,0009.46,0004.91,0004.13
2023-03-05 16:21:00,,0815.3,5.00,0.00,22.3,20.9,00.0,31.0,24.1,13.3,0001.5,0009.36,0004.83,0004.04
2023-03-05 16:22:00,,0815.3,5.00,0.00,22.3,20.9,00.0,31.0,24.1,13.3,0001.8,0009.35,0004.80,0004.01
2023-03-05 16:23:00,,0815.4,5.02,0.00,22.3,21.0,00.0,31.0,24.1,13.0,0001.6,0009.53,0004.84,0003.98
2023-03-05 16:24:00,,0815.3,5.00,0.00,22.3,21.0,00.0,31.0,24.1,13.1,0002.1,0009.54,0004.87,0003.98
2023-03-05 16:25:00,,0815.3,5.00,0.00,22.3,21.0,00.0,31.0,24.2,12.9,0001.9,0009.56,0004.87,0003.95
2023-03-05 16:26:00,,0815.4,5.01,0.00,22.3,21.1,00.0,31.0,24.2,13.0,0001.7,0009.72,0004.93,0003.97
2023-03-05 16:27:00,,0815.4,4.99,0.00,22.3,21.1,00.0,31.0,24.2,13.0,0001.8,0009.85,0004.96,0003.98
2023-03-05 16:28:00,,0815.4,5.00,0.00,22.3,21.1,00.0,31.0,24.2,12.8,0001.8,0009.57,0004.92,0003.94
2023-03-05 16:29:00,,0815.4,5.00,0.00,22.4,21.1,00.0,31.0,24.2,12.6,0000.9,0009.54,0004.84,0003.84
2023-03-05 16:30:00,,0815.4,5.00,0.00,22.3,21.1,00.0,31.0,24.1,12.3,0000.7,0009.29,0004.72,0003.75
2023-03-05 16:31:00,,0815.3,5.00,0.00,22.3,21.0,00.0,31.0,24.1,12.0,0000.9,0009.58,0004.62,0003.70
2023-03-05 16:32:00,,0815.2,5.00,0.00,22.3,21.0,00.0,31.0,24.2,11.8,0000.6,0009.55,0004.54,0003.63
2023-03-05 16:33:00,,0815.3,5.00,0.00,22.3,21.0,00.0,31.0,24.2,11.9,0000.7,0009.46,0004.45,0003.52
2023-03-05 16:34:00,,0815.3,5.01,0.00,22.3,20.9,00.0,31.0,24.1,12.0,0000.1,0009.45,0004.34,0003.45
2023-03-05 16:35:00,,0815.3,5.00,0.00,22.3,20.9,00.0,31.0,24.1,12.3,-000.6,0009.74,0004.29,0003.40
2023-03-05 16:36:00,,0815.4,5.01,0.00,22.3,20.9,00.0,31.0,24.2,12.5,0000.0,0010.26,0004.28,0003.39
2023-03-05 16:37:00,,0815.3,4.99,0.00,22.4,20.9,00.0,31.0,24.2,12.5,-000.3,0010.43,0004.26,0003.40
2023-03-05 16:38:25,,0815.4,4.95,0.00,22.4,21.0,00.0,31.0,24.2,12.5,-000.7,0010.33,0004.23,0003.40
2023-03-05 16:39:00,,0815.4,4.98,0.00,22.4,21.0,00.0,31.0,24.2,12.3,-001.5,0010.29,0004.24,0003.39
2023-03-05 16:40:00,,0815.4,4.97,0.00,22.4,21.1,00.0,31.1,24.2,12.2,-001.8,0010.19,0004.26,0003.39
2023-03-05 16:41:00,,0815.4,4.99,0.00,22.4,21.0,00.0,31.1,24.2,11.8,-001.7,0010.11,0004.29,0003.40
2023-03-05 16:42:00,,0815.4,5.00,0.00,22.4,21.0,00.0,31.1,24.2,12.3,-000.8,0010.20,0004.37,0003.42
2023-03-05 16:43:00,,0815.2,5.01,0.00,22.4,21.0,00.0,31.1,24.2,12.1,-001.3,0009.77,0004.39,0003.46
2023-03-05 16:44:00,,0815.2,4.98,0.00,22.4,21.0,00.0,31.1,24.2,12.1,-001.6,0009.72,0004.42,0003.50
2023-03-05 16:45:00,,0815.3,4.98,0.00,22.4,21.1,00.0,31.1,24.2,12.3,-000.4,0009.84,0004.50,0003.57
2023-03-05 16:46:00,,0815.4,5.00,0.00,22.4,21.0,00.0,31.1,24.2,11.8,-001.5,0009.84,0004.57,0003.62
2023-03-05 16:47:00,,0815.4,4.98,0.00,22.4,21.0,00.0,31.1,24.2,10.9,-002.1,0009.44,0004.53,0003.61
2023-03-05 16:48:00,,0815.2,5.00,0.00,22.4,20.9,00.0,31.1,24.2,11.6,-000.9,0009.00,0004.54,0003.61
2023-03-05 16:49:00,,0815.3,5.01,0.00,22.4,20.9,00.0,31.1,24.2,11.9,-000.5,0008.90,0004.57,0003.62
2023-03-05 16:50:00,,0815.3,5.00,0.00,22.4,20.9,00.0,31.1,24.2,11.9,0000.2,0009.60,0004.60,0003.63
2023-03-05 16:51:00,,0815.3,5.01,0.00,22.4,20.9,00.0,31.1,24.2,12.1,0000.6,0009.81,0004.59,0003.64
2023-03-05 16:52:00,,0815.3,4.99,0.00,22.4,21.0,00.0,31.1,24.2,11.7,0000.5,0009.73,0004.57,0003.64
2023-03-05 16:53:00,,0815.4,5.01,0.00,22.4,21.0,00.0,31.1,24.3,11.8,0000.0,0009.65,0004.53,0003.63
2023-03-05 16:54:00,,0815.3,5.00,0.00,22.4,21.0,00.0,31.1,24.3,11.6,0000.0,0009.51,0004.51,0003.62
2023-03-05 16:55:00,,0815.4,5.01,0.00,22.4,21.1,00.0,31.1,24.3,11.8,0000.0,0009.48,0004.50,0003.62
2023-03-05 16:56:00,,0815.2,5.00,0.00,22.4,21.1,00.0,31.1,24.3,11.6,0000.0,0009.65,0004.41,0003.59
2023-03-05 16:57:00,,0815.5,4.99,0.00,22.4,21.1,00.0,31.1,24.3,11.8,0000.0,0009.75,0004.35,0003.57
2023-03-05 16:58:00,,0815.5,5.00,0.00,22.4,21.1,00.0,31.1,24.3,12.2,0000.0,0009.96,0004.41,0003.63
2023-03-05 16:59:00,,0815.3,5.01,0.00,22.5,21.1,00.0,31.1,24.3,12.3,0000.0,0010.35,0004.42,0003.70
